Overview Statistics Trail Chart Weather Telemetry Raw packets
 

This is the latest recevied weather packets stored in our database for station/object N5TDX. If no packets are shown the sender has not sent any weather packets the latest 10 day(s).

<< 45 46 47 48 49 50 51 >>
Time Temp. Humidity Pressure Rain* Wind** Luminosity Snow
1788359192 31.11° C 57% 1013.6 hPa 0 mm - - -
1788358907 30.56° C 58% 1013.3 hPa 0 mm - - -
1788358587 30.56° C 57% 1013.3 hPa 0 mm - - -
1788358283 30.56° C 57% 1013.4 hPa 0 mm - - -
1788357978 30.56° C 58% 1013.3 hPa 0 mm - - -
1788357674 29.44° C 60% 1013.4 hPa 0 mm - - -
1788357373 29.44° C 61% 1013.3 hPa 0 mm - - -
1788357068 29.44° C 61% 1013.5 hPa 0 mm - - -
1788356764 29.44° C 61% 1013.2 hPa 0 mm - - -
1788356463 29.44° C 61% 1013.2 hPa 0 mm - - -
1788356158 28.33° C 64% 1013.5 hPa 0 mm - - -
1788355858 28.33° C 65% 1013.2 hPa 0 mm - - -
1788355554 27.78° C 65% 1013.5 hPa 0 mm - - -
1788355249 27.78° C 66% 1013.4 hPa 0 mm - - -
1788354945 27.78° C 66% 1013.2 hPa 0 mm - - -
1788354646 27.22° C 67% 1013.1 hPa 0 mm - - -
1788354341 26.67° C 69% 1013 hPa 0 mm - - -
1788354031 26.67° C 69% 1013.2 hPa 0 mm - - -
1788353727 26.67° C 69% 1013 hPa 0 mm - - -
1788353422 26.67° C 70% 1013 hPa 0 mm - - -
1788353119 26.11° C 70% 1013.1 hPa 0 mm - - -
1788352818 26.11° C 71% 1012.9 hPa 0 mm - - -
1788352514 26.11° C 72% 1012.7 hPa 0 mm - - -
1788352214 26.11° C 72% 1012.8 hPa 0 mm - - -
1788351909 25.56° C 72% 1012.9 hPa 0 mm - - -

* Rain latest hour (hover to see other rain measurements)
** Current wind speed in m/s (hover to see current wind gust speed)